Location: Newark
(44.6768°N, 22.5302°E)
Time: 17:56:11
(UTC+00:00)

UKube-1 - Pass Details

Date: 05 July 2022
Orbit: 608 x 615 km, 98.4° (Epoch: 18 August)

Event Time Altitude Azimuth Distance (km) Brightness Sun altitude
Rises 21:30:34 0° 2° (N) 2,894 ? -21.0°
Reaches altitude 10° 21:33:03 10° 349° (N) 1,982 ? -21.2°
Maximum altitude 21:36:34 25° 294° (WNW) 1,249 ? -21.3°
Enters shadow 21:39:34 12° 244° (WSW) 1,810 ? -21.4°
